Satellite: HAWKSAT1
Catalog number: 35003
Epoch time:      09246.90045768
Element set:      90
Inclination:      040.4601 deg
RA of node:       128.6556 deg
Eccentricity:    0.0027447
Arg of perigee:   031.3729 deg
Mean anomaly:     328.8721 deg
Mean motion:   15.40534533 rev/day
Decay rate:      3.525e-05 rev/day^2
Epoch rev:            1649
Checksum:              285

Satellite: CP6
Catalog number: 35004
Epoch time:      09245.92749964
Element set:    0094
Inclination:      040.4604 deg
RA of node:       134.4848 deg
Eccentricity:    0.0027908
Arg of perigee:   024.2914 deg
Mean anomaly:     335.9249 deg
Mean motion:   15.40573763 rev/day
Decay rate:      4.255e-05 rev/day^2
Epoch rev:           01633
Checksum:              312

Satellite: AEROCUB3
Catalog number: 35005
Epoch time:      09245.94011338
Element set:    0084
Inclination:      040.4726 deg
RA of node:       134.7010 deg
Eccentricity:    0.0027485
Arg of perigee:   021.6736 deg
Mean anomaly:     338.5250 deg
Mean motion:   15.40374909 rev/day
Decay rate:      4.062e-05 rev/day^2
Epoch rev:           01633
Checksum:              268

Satellite: DRAGNSAT
Catalog number: 35690
Epoch time:      09245.46831881
Element set:    0047
Inclination:      051.6405 deg
RA of node:       268.1637 deg
Eccentricity:    0.0002165
Arg of perigee:   179.8406 deg
Mean anomaly:     180.2600 deg
Mean motion:   15.81759814 rev/day
Decay rate:     2.1964e-04 rev/day^2
Epoch rev:           00537
Checksum:              306

Satellite: POLLUX
Catalog number: 35693
Epoch time:      09245.47951021
Element set:    0035
Inclination:      051.6406 deg
RA of node:       268.2443 deg
Eccentricity:    0.0003795
Arg of perigee:   116.7688 deg
Mean anomaly:     243.3699 deg
Mean motion:   15.81185727 rev/day
Decay rate:     2.0334e-04 rev/day^2
Epoch rev:           00534
Checksum:              307

Satellite: CASTOR
Catalog number: 35694
Epoch time:      09245.48778335
Element set:    0034
Inclination:      051.6412 deg
RA of node:       268.3064 deg
Eccentricity:    0.0004142
Arg of perigee:   128.4998 deg
Mean anomaly:     231.6375 deg
Mean motion:   15.80534110 rev/day
Decay rate:     1.0971e-04 rev/day^2
Epoch rev:           00534
Checksum:              291

/EX





More information about the Keps mailing list